{"data":{"norad_id":66562,"intl_designator":"2025-268F","name":"STARLINK-35579","alt_names":[],"object_type":"PAYLOAD","status":"ACTIVE","operator":null,"country":"US","launch_date":"2025-11-21","launch_site_code":"AFETR","launch_vehicle":null,"mission":null,"orbit_class":"UNKNOWN","rcs_meters":null,"size_class":null,"mass_kg":null,"dimensions":null,"purposes":["comms"],"wikipedia_slug":null,"has_3d_model":false,"image_url":null,"decayed_at":null,"tle_current":{"epoch":"2026-05-25T02:04:25.343616Z","epoch_age_seconds":61549,"freshness":"FRESH","line1":"1 66562U 25268F   26145.08640444  .00017667  00000+0  64970-3 0  9991","line2":"2 66562  43.0019 275.6163 0003602 266.3708  93.6731 15.27590801 29645","mean_motion":15.27590801,"eccentricity":0.0003602,"inclination_deg":43.0019,"raan_deg":275.6163,"arg_perigee_deg":266.3708,"mean_anomaly_deg":93.6731,"bstar":0.0006497,"rev_number":2964,"period_min":94.266082190161,"perigee_km":480.54536656833,"apogee_km":485.48814173282,"semimajor_km":6861.1537541506,"source":"CELESTRAK","updated_at":"2026-05-25T13:38:21.257011Z"}}}